Edinburgh Airport, United Kingdom

11:12 AM BST on September 29, 2016 (GMT +0100)
Edinburgh Airport

Weather History for EGPH - January, 2013

Change the Weather History Date:

Monday, January 7, 2013

  Actual Average Record
Temperature  
Mean Temperature 48 °F -  
Max Temperature 50 °F 43 °F 53 °F (2004)
Min Temperature 46 °F 33 °F 14 °F (2003)
Degree Days  
Heating Degree Days 17    
Moisture  
Dew Point 47 °F    
Average Humidity 92    
Maximum Humidity 100    
Minimum Humidity 82    
Precipitation  
Precipitation 0.00 in - - ()
Sea Level Pressure  
Sea Level Pressure 30.07 in    
Wind  
Wind Speed 7 mph ()    
Max Wind Speed 15 mph    
Max Gust Speed -    
Visibility 6.2 miles    
Events Rain    
Averages and records for this station are not official NWS values.
T = Trace of Precipitation, MM = Missing Value Source: Averaged Metar Reports

Daily Weather History Graph

Daily Weather History Graph

Search for Another Location

Airport or City:

Trip Planner

Search our weather history database for the weather conditions in past years. The results will help you decide how hot, cold, wet, or windy it might be!

Date:

Astronomy

Jan. 07, 2013 Rise Set
Actual Time 8:41 AM GMT 3:58 PM GMT
Civil Twilight 7:55 AM GMT 4:44 PM GMT
Nautical Twilight 7:07 AM GMT 5:32 PM GMT
Astronomical Twilight 6:22 AM GMT 6:17 PM GMT
Moon 3:32 AM GMT (1/7) 12:11 PM GMT (1/7)
Length of Visible Light 8h 48m
Length of Day
7h 17m
Waning Crescent, 25% of the Moon is Illuminated
Jan 7
Waning Crescent
Jan 11
New
Jan 18
First Quarter
Jan 27
Full
Feb 3
Last Quarter

Hourly Weather History & Observations

Time (GMT) Temp. Windchill Dew Point Humidity Pressure Visibility Wind Dir Wind Speed Gust Speed Precip Events Conditions
12:20 AM 48.2 °F - 46.4 °F 93% 30.18 in 6.2 mi WSW 9.2 mph - N/A Rain Light Rain
12:50 AM 48.2 °F - 44.6 °F 87% 30.15 in 6.2 mi WSW 8.1 mph - N/A Rain Light Rain
1:20 AM 48.2 °F - 44.6 °F 87% 30.15 in 6.2 mi WSW 9.2 mph - N/A Rain Light Rain
1:50 AM 48.2 °F - 46.4 °F 93% 30.15 in 6.2 mi SW 13.8 mph - N/A Rain Light Rain
2:20 AM 50.0 °F - 46.4 °F 87% 30.15 in 6.2 mi SW 15.0 mph - N/A Rain Light Rain
2:50 AM 48.2 °F - 46.4 °F 93% 30.12 in 6.2 mi WSW 12.7 mph - N/A Rain Light Rain
3:20 AM 48.2 °F - 46.4 °F 93% 30.12 in 6.2 mi WSW 8.1 mph - N/A Rain Light Rain
3:50 AM 48.2 °F - 46.4 °F 93% 30.12 in 6.2 mi West 5.8 mph - N/A Rain Light Rain
4:20 AM 48.2 °F - 46.4 °F 93% 30.12 in 6.2 mi West 4.6 mph - N/A Rain Light Rain
4:50 AM 48.2 °F - 46.4 °F 93% 30.12 in 6.2 mi Variable 3.5 mph - N/A Rain Light Rain
5:20 AM 48.2 °F - 46.4 °F 93% 30.12 in 6.2 mi WSW 6.9 mph - N/A Rain Light Rain
5:50 AM 48.2 °F - 46.4 °F 93% 30.12 in 6.2 mi SW 8.1 mph - N/A Rain Light Rain
6:20 AM 48.2 °F - 46.4 °F 93% 30.09 in 6.2 mi SW 8.1 mph - N/A Rain Light Rain
6:50 AM 48.2 °F - 46.4 °F 93% 30.09 in 6.2 mi SW 8.1 mph - N/A   Scattered Clouds
7:20 AM 50.0 °F - 46.4 °F 87% 30.09 in 6.2 mi SW 10.4 mph - N/A   Mostly Cloudy
7:50 AM 50.0 °F - 46.4 °F 87% 30.09 in 6.2 mi SSW 11.5 mph - N/A   Scattered Clouds
8:20 AM 50.0 °F - 46.4 °F 87% 30.09 in 6.2 mi SSW 8.1 mph - N/A   Mostly Cloudy
8:50 AM 50.0 °F - 46.4 °F 87% 30.09 in 6.2 mi SW 10.4 mph - N/A   Mostly Cloudy
9:20 AM 50.0 °F - 46.4 °F 87% 30.09 in 6.2 mi SW 12.7 mph - N/A   Mostly Cloudy
9:50 AM 48.2 °F - 46.4 °F 93% 30.09 in 6.2 mi SW 12.7 mph - N/A Rain Light Rain
10:20 AM 48.2 °F - 44.6 °F 87% 30.09 in 6.2 mi SW 10.4 mph - N/A Rain Light Rain
10:50 AM 48.2 °F - 44.6 °F 87% 30.09 in 6.2 mi SW 12.7 mph - N/A Rain Light Rain
11:20 AM 48.2 °F - 44.6 °F 87% 30.06 in 6.2 mi WSW 4.6 mph - N/A Rain Light Rain
11:50 AM 48.2 °F - 46.4 °F 93% 30.06 in 6.2 mi WSW 5.8 mph - N/A Rain Light Rain
12:20 PM 48.2 °F - 46.4 °F 93% 30.06 in 6.2 mi WSW 5.8 mph - N/A Rain Light Rain
12:50 PM 48.2 °F - 46.4 °F 93% 30.06 in 6.2 mi Variable 3.5 mph - N/A Rain Light Rain
1:20 PM 48.2 °F - 46.4 °F 93% 30.04 in 6.2 mi Calm Calm - N/A Rain Light Rain
1:50 PM 50.0 °F - 44.6 °F 82% 30.04 in 6.2 mi NE 4.6 mph - N/A Rain Light Rain
2:20 PM 46.4 °F 43.5 °F 46.4 °F 100% 30.04 in 5.6 mi NE 5.8 mph - N/A Rain Light Rain
2:50 PM 46.4 °F - 46.4 °F 100% 30.04 in 6.2 mi Calm Calm - N/A Rain Light Rain
3:20 PM 48.2 °F - 46.4 °F 93% 30.01 in 6.2 mi WSW 4.6 mph - N/A Rain Light Rain
3:50 PM 48.2 °F - 46.4 °F 93% 30.01 in 6.2 mi WSW 4.6 mph - N/A Rain Light Rain
4:20 PM 48.2 °F - 46.4 °F 93% 30.01 in 6.2 mi Variable 3.5 mph - N/A   Mostly Cloudy
4:50 PM 50.0 °F - 46.4 °F 87% 30.01 in 6.2 mi WSW 4.6 mph - N/A   Mostly Cloudy
5:20 PM 48.2 °F - 46.4 °F 93% 30.01 in 6.2 mi WSW 4.6 mph - N/A   Mostly Cloudy
5:50 PM 50.0 °F - 46.4 °F 87% 30.01 in 6.2 mi SW 8.1 mph - N/A   Scattered Clouds
6:20 PM 50.0 °F - 46.4 °F 87% 30.01 in 6.2 mi West 4.6 mph - N/A   Scattered Clouds
6:50 PM 50.0 °F - 48.2 °F 94% 30.01 in 6.2 mi WSW 10.4 mph - N/A   Scattered Clouds
7:20 PM 50.0 °F - 48.2 °F 94% 30.01 in 6.2 mi WSW 6.9 mph - N/A   Mostly Cloudy
7:50 PM 50.0 °F - 48.2 °F 94% 30.01 in 6.2 mi WSW 6.9 mph - N/A   Mostly Cloudy
8:20 PM 50.0 °F - 48.2 °F 94% 30.04 in 6.2 mi WSW 5.8 mph - N/A   Mostly Cloudy
8:50 PM 50.0 °F - 48.2 °F 94% 30.04 in 6.2 mi WSW 6.9 mph - N/A   Mostly Cloudy
9:20 PM 50.0 °F - 48.2 °F 94% 30.04 in 6.2 mi West 4.6 mph - N/A   Mostly Cloudy
9:50 PM 50.0 °F - 48.2 °F 94% 30.04 in 6.2 mi WSW 4.6 mph - N/A   Mostly Cloudy
10:20 PM 50.0 °F - 48.2 °F 94% 30.01 in 6.2 mi WSW 2.3 mph - N/A   Mostly Cloudy
10:50 PM 50.0 °F - 48.2 °F 94% 30.01 in 6.2 mi WSW 2.3 mph - N/A   Mostly Cloudy
11:20 PM 48.2 °F - 48.2 °F 100% 30.04 in 6.2 mi ENE 4.6 mph - N/A Rain Light Rain
11:50 PM 48.2 °F - 48.2 °F 100% 30.04 in 6.2 mi ENE 5.8 mph - N/A Rain Light Rain